Temperature
25 24 24 23 22 21 20 20 20 20 20 20 20 19 19 19 19 19 19 19 18 18 19 19 18 18 18 18 18 18 18 18 18 18 18 18 18 18 18 18 18 17 17
26 25 24 23 22 21 21 20 20 20 20 20 20 20 19 19 19 19 19 19 19 19 19 19 18 18 18 18 18 18 18 18 18 18 18 18 18 18 18 18 18 18 17
26 25 24 23 22 21 21 21 20 20 20 20 20 20 20 19 19 19 19 19 19 19 19 19 18 18 18 18 18 18 18 18 18 18 18 18 18 18 18 18 18 18 17
27 25 24 23 23 22 21 21 20 20 20 20 20 20 20 19 19 19 19 19 19 18 19 18 18 18 18 18 18 18 18 18 18 18 18 18 18 18 18 18 18 18 17
27 26 25 24 23 22 22 21 21 20 20 20 20 20 20 19 19 19 19 19 19 18 19 18 18 18 18 18 18 18 18 18 18 18 18 18 18 18 18 17 17 17 17
28 27 25 24 24 23 22 21 21 20 20 20 20 20 20 19 19 19 19 19 19 18 18 18 18 18 18 18 18 18 18 18 18 18 18 18 18 18 18 18 18 17 17
28 27 26 24 24 23 22 22 21 20 20 20 20 20 20 19 19 19 19 19 19 18 18 18 18 18 18 18 18 18 18 18 18 18 18 18 18 18 18 18 18 17 17
29 28 26 25 24 23 23 22 21 21 20 20 20 20 20 19 19 19 19 19 19 19 19 18 18 18 18 18 18 18 18 18 18 17 17 17 18 18 18 18 18 17 17
29 28 27 25 24 24 23 22 21 21 20 20 20 20 20 20 19 19 19 19 19 19 19 18 18 18 18 18 18 17 17 17 17 17 17 17 17 17 17 18 17 17 17
29 28 27 26 25 24 23 22 21 21 20 20 20 20 20 19 19 19 19 19 19 19 18 18 18 18 18 18 18 17 17 17 17 17 17 17 17 17 17 17 17 17 17
29 28 27 26 25 24 23 22 21 21 20 20 20 20 20 19 19 19 19 19 19 18 18 18 18 18 18 17 17 17 17 17 17 17 17 17 17 17 17 17 17 17 16
29 28 27 26 25 24 23 22 21 21 20 20 20 19 19 19 19 19 19 19 18 18 18 18 18 18 17 17 17 17 17 17 16 16 16 16 16 16 16 16 16 16 16
28 27 26 26 25 24 23 22 21 21 20 20 19 19 19 19 18 18 18 18 18 18 18 18 18 17 17 17 17 17 17 16 16 16 16 16 16 16 16 16 16 16 16
27 26 26 25 24 24 23 22 21 21 20 20 19 19 19 19 18 18 18 18 18 18 17 17 17 17 17 17 17 17 16 16 16 16 16 16 16 16 16 16 16 16 16
26 25 25 24 24 23 22 22 21 21 20 20 19 19 18 18 18 18 18 18 17 17 17 17 17 17 17 17 16 16 16 16 16 16 16 16 16 16 15 15 15 15 15
25 25 24 23 23 22 22 21 21 21 20 20 19 19 18 18 18 18 17 17 17 17 17 17 17 17 17 16 16 16 16 16 16 16 15 15 16 15 15 15 15 15 15
25 24 23 23 22 22 21 21 20 20 20 19 19 18 18 18 18 17 17 17 17 17 17 17 16 17 17 16 16 16 16 16 15 15 15 15 15 15 15 15 15 15 15
24 23 23 22 22 21 21 20 20 19 19 19 18 18 18 18 17 17 17 17 17 17 17 17 16 16 16 16 16 16 16 16 15 15 15 15 15 15 15 15 14 14 14
23 23 22 22 21 21 20 20 19 19 19 18 18 18 17 17 17 17 17 17 17 17 17 16 16 16 16 16 16 16 16 15 15 15 15 15 15 15 15 14 14 14 14
22 22 22 21 21 20 20 19 19 19 18 18 18 18 17 17 17 17 17 17 17 17 16 16 16 16 16 16 16 16 16 15 15 15 15 15 15 15 15 14 14 14 14
21 22 21 21 20 20 19 19 19 18 18 18 17 17 17 17 17 17 17 17 16 16 16 16 16 16 16 16 16 16 16 15 15 15 15 15 15 15 14 14 14 14 14
21 21 20 20 19 19 19 19 18 18 18 17 17 17 17 17 17 17 16 16 16 16 16 16 16 16 16 16 16 16 16 15 15 15 15 15 15 15 14 14 14 14 13
20 20 20 19 19 18 18 18 18 18 17 17 17 17 17 17 17 16 16 16 16 16 16 16 16 16 16 16 16 16 16 15 15 15 15 14 14 14 14 14 14 14 13
19 19 19 18 18 18 18 18 17 17 17 17 17 17 17 17 16 16 16 16 16 16 16 16 16 16 16 16 15 15 15 15 15 15 14 14 14 14 14 14 13 13 13
18 18 18 18 17 17 17 17 17 17 17 17 16 16 16 16 16 16 16 16 16 16 16 16 15 15 15 15 15 15 15 15 14 14 14 14 14 14 14 13 13 13 13
18 17 17 17 17 17 17 16 16 16 16 16 16 16 16 16 16 16 16 16 16 16 16 16 15 15 15 15 15 15 15 14 14 14 14 14 13 13 13 13 13 13 12
Wind_Speed
13 13 11 12 12 10 8 6 6 4 3 2 2 2 2 1 2 3 4 3 2 2 1 2 2 1 2 1 1 1 1 2 1 1 1 0 1 1 1 2 2 3 4
14 14 13 12 12 10 9 8 7 6 4 3 2 2 2 2 3 3 3 3 3 2 2 2 1 2 2 2 1 1 0 1 1 1 1 0 1 1 2 2 2 1 2
16 15 13 12 12 11 10 8 7 6 4 4 3 2 2 1 3 3 3 2 3 2 2 2 2 2 2 2 2 1 1 1 1 1 1 1 1 0 0 1 2 2 1
16 15 14 13 13 12 11 8 8 6 5 4 3 3 3 2 3 2 3 3 3 3 2 2 2 1 2 2 2 2 1 1 2 1 1 1 2 2 1 1 1 3 3
17 17 16 14 13 13 12 10 8 7 5 4 3 2 2 2 2 3 4 3 3 3 3 3 2 1 1 1 1 1 0 1 1 1 1 1 1 2 2 2 2 1 2
16 16 16 14 12 12 12 11 10 8 7 6 5 4 3 2 3 3 4 3 3 3 3 4 3 2 1 1 1 1 1 1 1 2 1 1 1 1 1 1 2 2 2
15 16 16 16 13 12 12 12 11 9 8 7 5 4 3 3 3 3 3 3 3 3 3 3 3 2 1 2 1 2 1 1 0 1 2 2 1 1 1 1 1 1 1
14 16 17 16 14 13 12 12 12 10 9 7 6 5 4 3 3 2 2 3 2 2 3 3 3 3 2 2 1 2 2 2 1 1 1 2 1 1 1 1 1 1 1
13 14 16 16 15 13 12 12 12 10 9 8 7 5 5 3 2 2 3 2 2 2 3 4 4 3 2 1 1 1 1 2 1 2 1 2 1 1 1 1 1 1 1
13 13 14 15 15 13 11 11 11 10 8 8 7 7 5 4 3 2 2 1 1 1 2 3 3 3 3 2 1 1 1 1 1 1 0 1 2 1 1 1 1 1 1
12 12 12 12 12 13 13 12 11 10 8 7 6 5 5 4 4 2 2 2 2 2 2 2 2 2 2 2 1 1 1 1 1 2 1 2 2 1 2 1 1 1 1
10 10 11 11 11 12 12 11 11 10 9 7 6 5 5 4 4 3 2 2 2 2 3 3 2 2 2 2 2 1 1 1 1 1 1 1 1 1 2 2 1 1 1
7 9 9 8 8 9 10 11 10 10 10 8 8 6 5 5 4 3 3 3 3 3 2 2 2 2 2 1 1 2 1 1 1 1 1 1 1 1 1 2 1 1 1
7 7 8 7 6 7 8 9 9 9 9 9 8 7 5 5 4 4 4 3 3 3 2 2 2 3 2 1 1 2 2 1 1 1 1 1 1 1 2 2 1 1 1
5 6 7 7 7 7 7 7 7 7 7 8 8 7 6 5 4 4 4 3 3 3 2 2 2 2 2 2 1 2 2 2 2 1 1 0 0 0 1 1 1 1 2
4 5 7 7 7 7 7 7 7 7 6 7 7 6 6 6 5 4 4 4 3 2 2 2 3 3 2 1 1 1 2 2 2 2 2 2 2 2 2 1 1 1 2
5 5 6 6 6 6 6 6 6 6 6 6 6 6 6 6 5 5 4 4 4 4 3 3 3 2 2 1 0 2 2 3 2 2 2 3 2 2 2 3 3 2 2
5 4 6 6 6 6 6 6 7 6 6 6 6 6 5 5 5 4 4 4 3 3 3 3 3 3 3 3 2 3 3 4 3 3 2 2 2 2 2 3 3 3 3
4 4 5 7 6 6 5 6 7 7 6 6 5 5 5 4 4 4 4 3 3 3 4 3 4 3 3 4 4 3 3 4 4 4 4 3 3 3 3 3 3 3 3
3 4 5 6 6 5 5 5 6 6 6 5 5 4 4 4 4 4 3 3 3 3 4 3 4 4 4 6 6 4 4 4 4 4 4 5 4 4 4 4 4 5 4
4 4 5 5 6 5 5 4 5 5 5 5 4 4 4 3 3 3 3 3 3 4 4 4 4 5 6 7 9 8 4 4 4 4 4 3 6 6 6 6 5 6 5
3 4 5 5 5 5 4 4 4 4 4 5 5 4 4 4 3 3 3 3 4 5 5 5 5 5 5 7 9 10 9 7 5 5 3 2 4 6 8 7 7 6 5
2 3 4 4 4 4 4 4 3 3 4 4 4 4 3 3 3 4 4 4 5 5 5 5 5 5 4 6 9 11 10 10 6 5 4 4 6 7 6 8 8 6 5
2 3 4 4 3 3 4 4 4 3 4 4 3 3 3 4 4 4 5 5 4 4 4 4 4 4 3 3 3 4 5 6 6 5 5 5 7 7 6 5 6 6 6
2 2 3 3 4 3 3 3 3 3 3 3 3 4 4 4 3 4 4 4 3 4 4 3 3 3 3 1 1 2 2 3 3 2 3 4 4 4 4 5 5 5 5
3 3 3 3 3 3 4 3 3 3 3 3 3 4 4 3 4 4 3 3 4 5 6 4 4 3 3 3 3 3 3 3 3 2 4 5 5 5 5 5 5 4 4
Wind_Direction
164 161 161 153 150 149 152 150 147 143 149 144 147 139 146 144 110 114 117 130 123 114 110 99 133 144 131 133 134 142 194 200 172 179 244 267 144 140 181 151 163 152 155
164 164 166 162 160 157 158 157 156 159 169 152 159 160 154 152 115 97 109 114 103 111 129 114 157 127 142 146 139 105 289 256 170 175 147 95 349 283 205 168 163 152 158
168 168 170 167 164 164 167 168 163 161 174 166 173 151 127 125 109 117 131 123 124 117 75 117 105 113 139 142 173 164 206 244 266 244 168 155 191 244 174 201 151 156 172
171 170 171 170 170 171 169 160 158 162 168 170 183 172 163 159 147 145 141 152 148 138 122 111 103 99 110 129 200 168 236 235 264 258 255 202 159 173 200 297 170 177 177
175 173 173 172 175 174 170 165 158 162 168 177 180 185 169 167 153 150 145 161 156 148 138 129 129 124 118 142 195 114 233 278 289 283 274 276 223 222 191 212 211 208 189
175 172 170 167 173 174 169 165 160 165 170 177 177 181 191 179 157 155 158 173 164 160 161 150 149 142 152 155 143 184 147 68 346 305 303 297 262 237 210 210 202 197 204
172 170 168 168 172 172 171 164 160 168 175 180 176 178 193 198 178 186 181 183 168 165 165 165 152 155 168 158 164 174 160 136 150 291 315 317 298 298 249 196 210 207 207
173 171 170 169 172 175 172 165 162 170 178 180 177 178 187 201 192 204 203 184 182 164 158 158 157 156 180 184 182 171 168 157 223 242 271 295 304 310 289 251 224 233 221
167 168 168 169 173 175 172 167 162 171 180 180 174 178 176 194 199 193 206 196 171 169 143 157 157 158 169 174 185 186 173 160 206 245 243 272 275 280 288 269 214 214 249
165 165 167 169 170 171 166 162 160 167 173 174 180 178 175 182 175 184 192 160 140 132 139 146 149 153 154 164 214 200 193 204 208 217 251 280 288 297 290 283 274 252 236
162 163 164 163 164 167 166 166 162 165 172 173 174 169 170 181 173 182 187 148 143 149 153 139 145 159 157 164 198 224 198 228 246 265 237 245 275 307 301 290 276 256 188
152 154 155 156 162 164 164 162 164 169 169 167 166 167 169 167 171 176 173 152 158 162 157 155 161 182 166 167 181 220 228 234 242 252 256 254 255 252 292 304 297 296 251
143 144 146 149 152 155 156 158 166 169 168 165 167 170 171 165 164 162 153 149 153 158 163 162 172 178 170 180 201 216 236 241 244 239 246 256 268 265 286 290 292 286 280
136 139 136 135 138 138 140 150 160 161 162 163 166 167 170 169 162 152 151 161 169 174 175 178 187 176 163 180 218 222 229 243 251 231 242 269 286 291 280 270 300 304 298
135 136 135 132 135 135 139 146 151 153 159 160 163 164 169 163 159 160 162 167 178 183 178 186 184 180 174 201 221 261 229 238 252 241 230 254 233 297 282 274 308 287 272
146 143 137 139 141 140 145 149 154 153 155 160 162 161 166 164 165 169 166 165 170 175 183 188 191 197 203 178 182 230 266 243 226 237 228 223 213 197 194 196 215 296 270
144 141 142 144 143 146 143 149 151 152 153 159 160 160 165 166 169 179 171 179 181 186 197 198 187 172 173 194 228 223 246 254 227 234 248 262 249 193 218 220 220 234 247
128 138 147 144 146 148 150 149 155 152 157 163 165 163 168 171 171 177 180 189 192 193 206 208 190 188 200 197 214 267 254 252 245 234 234 243 244 258 261 250 240 238 242
110 125 136 144 139 142 143 149 152 151 160 162 162 163 166 168 170 175 186 192 197 200 212 208 199 201 204 205 206 229 254 251 249 243 238 231 229 235 238 243 248 253 254
102 114 119 125 127 130 139 145 153 154 159 157 154 154 158 168 178 181 186 195 200 212 220 212 206 204 206 201 202 217 248 255 251 239 230 220 218 220 226 238 240 246 251
99 105 115 122 123 126 136 143 148 153 148 145 144 149 150 167 182 171 174 193 212 221 227 225 221 208 205 199 205 205 233 255 265 254 245 229 199 214 231 244 247 248 255
100 117 109 112 118 126 136 140 144 140 139 145 150 159 167 190 185 174 195 207 216 222 224 227 235 230 209 201 205 208 224 250 263 264 263 243 223 234 240 242 244 247 253
113 120 117 115 121 131 140 144 144 147 151 154 162 173 182 195 188 198 213 222 222 227 233 227 231 236 219 206 210 210 226 242 252 271 286 277 250 247 244 239 235 235 241
128 135 131 131 133 141 146 143 144 150 156 162 174 185 195 207 202 214 223 224 228 232 236 237 241 245 237 213 199 213 229 243 253 272 283 269 249 243 241 238 228 226 235
109 124 133 137 143 142 139 144 143 146 160 173 183 203 217 212 211 224 233 237 234 232 235 251 259 270 264 247 185 219 237 247 250 268 269 265 250 239 237 233 228 226 227
122 123 126 132 136 143 142 140 151 165 180 198 207 221 227 212 215 224 227 228 229 222 216 221 237 247 223 210 208 218 230 231 216 226 254 258 255 250 248 248 244 236 234
Height
1508 1512 1515 1517 1520 1522 1524 1525 1527 1528 1529 1530 1531 1531 1532 1532 1533 1533 1533 1534 1535 1536 1536 1537 1538 1539 1540 1540 1541 1542 1542 1543 1544 1544 1545 1545 1545 1545 1546 1546 1546 1547 1548
1506 1510 1513 1516 1518 1520 1522 1524 1526 1527 1528 1529 1531 1532 1532 1533 1533 1533 1534 1534 1535 1536 1537 1537 1538 1538 1539 1540 1540 1541 1542 1543 1543 1544 1544 1545 1546 1545 1546 1546 1546 1547 1547
1502 1506 1510 1513 1516 1519 1520 1523 1524 1526 1527 1529 1530 1532 1532 1533 1534 1534 1534 1534 1535 1536 1536 1537 1537 1538 1538 1539 1540 1540 1541 1542 1543 1543 1544 1544 1544 1545 1545 1545 1546 1546 1547
1498 1503 1507 1511 1514 1516 1519 1521 1523 1524 1526 1528 1529 1530 1531 1532 1533 1533 1534 1534 1535 1535 1536 1536 1537 1537 1538 1538 1539 1539 1540 1541 1541 1542 1543 1543 1543 1544 1544 1545 1545 1545 1546
1494 1499 1504 1508 1512 1515 1517 1519 1521 1523 1525 1526 1528 1529 1531 1532 1533 1533 1534 1534 1535 1535 1535 1536 1536 1536 1537 1538 1538 1539 1539 1540 1540 1540 1541 1541 1542 1542 1543 1543 1543 1544 1544
1490 1495 1500 1505 1509 1513 1515 1517 1519 1521 1523 1525 1526 1528 1530 1531 1532 1533 1533 1533 1534 1534 1535 1535 1535 1536 1536 1537 1537 1538 1538 1538 1539 1539 1540 1540 1540 1540 1541 1541 1541 1541 1542
1486 1492 1497 1501 1506 1510 1513 1515 1516 1519 1521 1523 1525 1526 1528 1530 1531 1532 1532 1533 1533 1534 1534 1534 1535 1535 1535 1536 1536 1536 1537 1537 1537 1538 1538 1538 1539 1539 1539 1539 1539 1539 1539
1482 1487 1493 1498 1503 1507 1510 1513 1514 1517 1519 1521 1523 1525 1527 1528 1529 1530 1531 1532 1532 1533 1533 1533 1534 1534 1534 1535 1535 1535 1535 1536 1536 1536 1537 1537 1537 1538 1538 1538 1538 1538 1538
1479 1485 1490 1495 1500 1504 1507 1510 1512 1515 1517 1520 1521 1523 1525 1526 1528 1529 1530 1531 1532 1532 1532 1532 1532 1533 1533 1533 1534 1534 1534 1534 1534 1535 1535 1535 1535 1535 1536 1536 1536 1537 1536
1478 1483 1488 1493 1497 1501 1505 1508 1510 1513 1515 1518 1520 1521 1523 1524 1526 1527 1528 1529 1530 1530 1531 1531 1531 1531 1532 1532 1532 1533 1533 1533 1533 1533 1533 1533 1533 1533 1534 1534 1534 1534 1534
1476 1481 1485 1490 1495 1499 1502 1505 1508 1511 1513 1516 1517 1519 1521 1522 1524 1525 1526 1527 1527 1528 1529 1529 1530 1530 1530 1530 1531 1531 1531 1531 1531 1531 1531 1531 1531 1531 1532 1532 1532 1532 1532
1475 1479 1484 1488 1493 1496 1500 1503 1505 1508 1511 1513 1515 1517 1518 1520 1521 1522 1523 1524 1525 1526 1527 1527 1527 1528 1528 1528 1529 1529 1529 1530 1530 1529 1530 1529 1530 1530 1530 1530 1530 1530 1530
1475 1479 1483 1487 1491 1494 1498 1501 1503 1506 1509 1511 1513 1515 1516 1518 1519 1520 1521 1522 1523 1524 1524 1525 1525 1526 1526 1527 1527 1527 1528 1528 1528 1528 1528 1528 1528 1528 1528 1528 1528 1528 1528
1475 1479 1482 1486 1490 1493 1496 1499 1502 1504 1507 1509 1511 1513 1514 1516 1517 1518 1519 1520 1521 1522 1522 1523 1523 1524 1524 1525 1525 1526 1526 1526 1526 1526 1526 1526 1526 1525 1526 1526 1525 1525 1525
1477 1479 1482 1486 1489 1492 1494 1497 1500 1502 1505 1506 1508 1510 1512 1514 1515 1516 1516 1518 1519 1520 1520 1521 1521 1522 1522 1523 1523 1524 1524 1524 1524 1524 1524 1524 1523 1523 1523 1523 1523 1523 1523
1475 1479 1482 1485 1488 1490 1493 1495 1498 1500 1502 1504 1506 1508 1510 1511 1512 1513 1514 1515 1516 1518 1519 1519 1519 1520 1520 1520 1521 1521 1521 1521 1522 1521 1521 1521 1521 1521 1521 1520 1520 1520 1520
1476 1478 1481 1484 1486 1489 1491 1493 1496 1498 1500 1502 1504 1506 1507 1509 1510 1512 1512 1513 1514 1515 1516 1517 1517 1517 1517 1518 1519 1519 1519 1519 1519 1519 1519 1519 1519 1518 1518 1518 1518 1517 1517
1475 1478 1480 1483 1485 1487 1490 1492 1494 1496 1498 1500 1502 1504 1505 1506 1508 1509 1510 1511 1512 1513 1513 1514 1515 1515 1515 1516 1516 1516 1516 1516 1516 1516 1516 1516 1516 1516 1515 1515 1514 1514 1514
1475 1477 1479 1481 1484 1486 1488 1490 1492 1494 1495 1497 1499 1501 1503 1504 1506 1507 1508 1509 1510 1510 1511 1512 1512 1513 1513 1513 1513 1514 1513 1513 1513 1513 1513 1513 1513 1513 1512 1512 1511 1511 1510
1474 1477 1479 1481 1482 1484 1486 1488 1490 1491 1493 1495 1497 1499 1501 1502 1504 1504 1505 1507 1508 1508 1509 1509 1510 1510 1510 1510 1511 1511 1510 1510 1510 1510 1510 1510 1509 1509 1509 1508 1507 1506 1506
1474 1477 1478 1480 1482 1483 1485 1487 1489 1490 1492 1493 1495 1497 1498 1500 1501 1502 1503 1504 1505 1506 1506 1507 1507 1507 1507 1507 1507 1507 1507 1507 1506 1506 1506 1506 1506 1505 1505 1504 1504 1503 1503
1475 1477 1479 1480 1481 1483 1485 1486 1487 1489 1491 1492 1494 1496 1497 1499 1500 1500 1501 1502 1502 1503 1503 1503 1504 1504 1504 1504 1504 1504 1504 1503 1503 1503 1502 1502 1502 1501 1501 1500 1500 1500 1499
1475 1477 1478 1480 1481 1483 1484 1485 1486 1488 1489 1491 1492 1494 1495 1496 1497 1498 1498 1499 1500 1500 1500 1500 1501 1501 1501 1500 1500 1500 1500 1499 1499 1499 1498 1498 1497 1497 1496 1496 1496 1496 1495
1475 1476 1478 1479 1480 1482 1483 1484 1485 1487 1488 1489 1490 1492 1493 1494 1495 1495 1496 1497 1497 1497 1497 1497 1497 1498 1498 1497 1496 1495 1495 1495 1495 1495 1494 1494 1493 1493 1492 1491 1491 1491 1491
1474 1476 1477 1478 1480 1481 1482 1483 1484 1485 1486 1487 1488 1489 1491 1491 1492 1492 1493 1493 1494 1494 1494 1494 1494 1495 1494 1493 1493 1492 1491 1491 1491 1490 1490 1489 1488 1488 1487 1487 1487 1486 1486
1473 1475 1476 1477 1479 1480 1481 1482 1483 1484 1485 1486 1486 1488 1488 1489 1489 1489 1490 1490 1491 1491 1491 1491 1491 1490 1490 1490 1489 1488 1488 1487 1487 1486 1485 1484 1484 1483 1483 1483 1482 1482 1481